Saint Petersburg, FL

1:28 PM EDT on August 30, 2016 (GMT -0400)
Whitted

Weather History for KSPG - November, 2010

Change the Weather History Date:

Saturday, November 6, 2010

  Actual Average Record
Temperature  
Mean Temperature 58 °F -  
Max Temperature 62 °F 77 °F 87 °F (1961)
Min Temperature 55 °F 62 °F 33 °F (1996)
Degree Days  
Heating Degree Days 7    
Growing Degree Days 8 (Base 50)    
Moisture  
Dew Point 41 °F    
Average Humidity 53    
Maximum Humidity 64    
Minimum Humidity 41    
Precipitation  
Precipitation 0.00 in - - ()
Sea Level Pressure  
Sea Level Pressure 30.18 in    
Wind  
Wind Speed 14 mph (NNE)    
Max Wind Speed 18 mph    
Max Gust Speed 28 mph    
Visibility 10 miles    
Events      
Averages and records for this station are not official NWS values.
T = Trace of Precipitation, MM = Missing Value Source: NWS Daily Summary

Daily Weather History Graph

Daily Weather History Graph

Search for Another Location

Airport or City:

Trip Planner

Search our weather history database for the weather conditions in past years. The results will help you decide how hot, cold, wet, or windy it might be!

Date:

Astronomy

Nov. 06, 2010 Rise Set
Actual Time 7:44 AM EDT 6:42 PM EDT
Civil Twilight 7:20 AM EDT 7:07 PM EDT
Nautical Twilight 6:52 AM EDT 7:35 PM EDT
Astronomical Twilight 6:25 AM EDT 8:02 PM EDT
Moon 8:11 AM EDT (11/6) 7:00 PM EDT (11/6)
Length of Visible Light 11h 46m
Length of Day
10h 58m
New Moon, 0% of the Moon is Illuminated
Nov 6
New Moon
Nov 13
First Quarter
Nov 21
Full
Nov 28
Last Quarter
Dec 5
New

Hourly Weather History & Observations

Time (EDT) Temp. Dew Point Humidity Pressure Visibility Wind Dir Wind Speed Gust Speed Precip Events Conditions
12:53 AM 61.0 °F 42.1 °F 50% 30.08 in 10.0 mi NE 12.7 mph - N/A   Partly Cloudy
1:53 AM 60.1 °F 43.0 °F 53% 30.09 in 10.0 mi NNE 15.0 mph 24.2 mph N/A   Scattered Clouds
2:53 AM 57.9 °F 42.1 °F 56% 30.10 in 10.0 mi NNE 16.1 mph - N/A   Clear
3:53 AM 57.9 °F 42.1 °F 56% 30.10 in 10.0 mi NNE 16.1 mph - N/A   Clear
4:53 AM 57.0 °F 41.0 °F 55% 30.11 in 10.0 mi NNE 16.1 mph - N/A   Mostly Cloudy
5:53 AM 57.0 °F 41.0 °F 55% 30.13 in 10.0 mi NE 16.1 mph - N/A   Scattered Clouds
6:53 AM 55.9 °F 43.0 °F 62% 30.15 in 10.0 mi NNE 17.3 mph 23.0 mph N/A   Mostly Cloudy
7:53 AM 55.0 °F 43.0 °F 64% 30.18 in 10.0 mi NE 17.3 mph - N/A   Partly Cloudy
8:53 AM 55.0 °F 43.0 °F 64% 30.21 in 10.0 mi NE 18.4 mph 24.2 mph N/A   Scattered Clouds
9:53 AM 55.9 °F 42.1 °F 60% 30.23 in 10.0 mi NE 18.4 mph - N/A   Clear
10:53 AM 59.0 °F 42.1 °F 53% 30.24 in 10.0 mi NE 15.0 mph - N/A   Clear
11:53 AM 59.0 °F 41.0 °F 51% 30.23 in 10.0 mi North 12.7 mph - N/A   Mostly Cloudy
12:53 PM 61.0 °F 39.9 °F 46% 30.21 in 10.0 mi North 15.0 mph 21.9 mph N/A   Clear
1:53 PM 61.0 °F 41.0 °F 48% 30.18 in 10.0 mi North 17.3 mph 27.6 mph N/A   Clear
2:53 PM 61.0 °F 37.9 °F 42% 30.17 in 10.0 mi North 17.3 mph 26.5 mph N/A   Clear
3:53 PM 61.0 °F 37.9 °F 42% 30.17 in 10.0 mi North 13.8 mph 23.0 mph N/A   Clear
4:53 PM 61.0 °F 37.0 °F 41% 30.17 in 10.0 mi NNE 16.1 mph - N/A   Clear
6:53 PM 57.9 °F 37.9 °F 47% 30.20 in 10.0 mi North 9.2 mph - N/A   Clear
7:53 PM 57.9 °F 39.9 °F 51% 30.22 in 10.0 mi North 9.2 mph - N/A   Clear
8:53 PM 57.0 °F 41.0 °F 55% 30.25 in 10.0 mi North 6.9 mph - N/A   Clear
9:53 PM 57.0 °F 42.1 °F 57% 30.27 in 10.0 mi North 5.8 mph - N/A   Clear
10:53 PM 57.9 °F 39.0 °F 49% 30.28 in 10.0 mi NNE 9.2 mph - N/A   Clear